This is the latest recevied weather packets stored in our database for station/object W3JGB. If no packets are shown the sender has not sent any weather packets the latest 10 day(s).
| Time | Temp. | Humidity | Pressure | Rain* | Wind** | Luminosity | Snow |
|---|---|---|---|---|---|---|---|
| 1777940246 | 19.44° C | 53% | 1006.8 hPa | 0 mm | - | 0 W/m² | - |
| 1777939943 | 19.44° C | 51% | 1006.7 hPa | 0 mm | - | 0 W/m² | - |
| 1777939640 | 20° C | 49% | 1006.7 hPa | 0 mm | - | 0 W/m² | - |
| 1777939338 | 20° C | 48% | 1006.7 hPa | 0 mm | - | 2 W/m² | - |
| 1777939034 | 20° C | 49% | 1006.6 hPa | 0 mm | - | 4 W/m² | - |
| 1777938730 | 20.56° C | 49% | 1006.5 hPa | 0 mm | - | 7 W/m² | - |
| 1777938428 | 21.11° C | 47% | 1006.7 hPa | 0 mm | - | 11 W/m² | - |
| 1777938125 | 21.11° C | 49% | 1006.6 hPa | 0 mm | - | 19 W/m² | - |
| 1777937821 | 21.11° C | 45% | 1006.5 hPa | 0 mm | - | 16 W/m² | - |
| 1777937517 | 21.11° C | 48% | 1006.5 hPa | 0 mm | - | 17 W/m² | - |
| 1777937214 | 21.11° C | 47% | 1006.2 hPa | 0 mm | - | 25 W/m² | - |
| 1777936911 | 21.11° C | 49% | 1006.2 hPa | 0 mm | - | 36 W/m² | - |
| 1777936608 | 21.11° C | 49% | 1006.3 hPa | 0 mm | - | 42 W/m² | - |
| 1777936304 | 21.11° C | 49% | 1006.2 hPa | 0 mm | - | 37 W/m² | - |
| 1777936000 | 21.67° C | 45% | 1006 hPa | 0 mm | - | 33 W/m² | - |
| 1777935699 | 22.22° C | 43% | 1006.1 hPa | 0 mm | - | 32 W/m² | - |
| 1777935398 | 22.78° C | 42% | 1006.1 hPa | 0 mm | - | 58 W/m² | - |
| 1777935093 | 22.78° C | 40% | 1005.9 hPa | 0 mm | - | 65 W/m² | - |
| 1777934790 | 22.78° C | 40% | 1005.9 hPa | 0 mm | - | 72 W/m² | - |
| 1777934487 | 23.33° C | 40% | 1005.9 hPa | 0 mm | - | 59 W/m² | - |
| 1777934184 | 23.33° C | 40% | 1005.8 hPa | 0 mm | - | 95 W/m² | - |
| 1777933880 | 22.78° C | 39% | 1006 hPa | 0 mm | - | 107 W/m² | - |
| 1777933577 | 23.33° C | 39% | 1006 hPa | 0 mm | - | 58 W/m² | - |
| 1777933274 | 23.33° C | 39% | 1005.9 hPa | 0 mm | - | 169 W/m² | - |
| 1777932971 | 23.33° C | 40% | 1006 hPa | 0 mm | - | 178 W/m² | - |
* Rain latest hour (hover to see other rain measurements)
** Current wind speed in m/s (hover to see current wind gust speed)